Weather History for KHIB - October, 2012

Change the Weather History Date:

Friday, October 5, 2012

  Actual Average Record
Temperature  
Mean Temperature 34 °F -  
Max Temperature 36 °F 55 °F 87 °F (1963)
Min Temperature 32 °F 34 °F 19 °F (1988)
Degree Days  
Heating Degree Days 32    
Moisture  
Dew Point 30 °F    
Average Humidity 88    
Maximum Humidity 100    
Minimum Humidity 75    
Precipitation  
Precipitation 0.03 in - - ()
Sea Level Pressure  
Sea Level Pressure 29.95 in    
Wind  
Wind Speed 13 mph (WNW)    
Max Wind Speed 17 mph    
Max Gust Speed 29 mph    
Visibility 6 miles    
Events Rain , Snow    
Averages and records for this station are not official NWS values.
T = Trace of Precipitation, MM = Missing Value Source: NWS Daily Summary

Daily Weather History Graph

Daily Weather History Graph

Search for Another Location

Airport or City:

Trip Planner

Search our weather history database for the weather conditions in past years. The results will help you decide how hot, cold, wet, or windy it might be!

Date:

Astronomy

Oct. 05, 2012 Rise Set
Actual Time 7:16 AM CDT 6:41 PM CDT
Civil Twilight 6:45 AM CDT 7:12 PM CDT
Nautical Twilight 6:10 AM CDT 7:47 PM CDT
Astronomical Twilight 5:34 AM CDT 8:23 PM CDT
Moon 9:46 PM CDT (10/5) 12:44 PM CDT (10/5)
Length of Visible Light 12h 26m
Length of Day
11h 25m
Waning Gibbous, 74% of the Moon is Illuminated
Oct 5
Waning Gibbous
Oct 8
Last Quarter
Oct 15
New
Oct 21
First Quarter
Oct 29
Full

Hourly Weather History & Observations

Time (CDT) Temp. Windchill Dew Point Humidity Pressure Visibility Wind Dir Wind Speed Gust Speed Precip Events Conditions
12:43 AM 33.8 °F 23.5 °F 30.2 °F 87% 29.87 in 10.0 mi West 16.1 mph 25.3 mph 0.00 in   Overcast
12:53 AM 34.0 °F 24.2 °F 30.0 °F 85% 29.91 in 10.0 mi West 15.0 mph 27.6 mph 0.00 in   Overcast
1:27 AM 33.8 °F 23.9 °F 30.2 °F 87% 29.87 in 10.0 mi West 15.0 mph 27.6 mph N/A   Mostly Cloudy
1:34 AM 33.8 °F 23.9 °F 30.2 °F 87% 29.87 in 10.0 mi West 15.0 mph 28.8 mph N/A   Overcast
1:53 AM 34.0 °F 24.6 °F 30.0 °F 85% 29.92 in 10.0 mi West 13.8 mph 21.9 mph N/A   Overcast
3:53 AM 33.1 °F 23.9 °F 30.0 °F 89% 29.91 in 10.0 mi West 12.7 mph 19.6 mph 0.00 in   Overcast
4:14 AM 33.8 °F 25.3 °F 32.0 °F 93% 29.87 in 1.8 mi West 11.5 mph - 0.00 in Snow Light Snow
4:22 AM 32.0 °F 23.6 °F 32.0 °F 100% 29.87 in 1.2 mi West 10.4 mph 19.6 mph 0.00 in Snow Light Snow
4:30 AM 32.0 °F 23.0 °F 32.0 °F 100% 29.87 in 3.0 mi West 11.5 mph 19.6 mph 0.00 in Snow Light Snow
4:32 AM 32.0 °F 23.0 °F 30.2 °F 93% 29.87 in 2.5 mi West 11.5 mph 19.6 mph 0.00 in Snow Light Snow
4:36 AM 32.0 °F 22.5 °F 30.2 °F 93% 29.87 in 1.8 mi West 12.7 mph 23.0 mph 0.00 in Snow Light Snow
4:53 AM 32.0 °F 21.2 °F 30.9 °F 96% 29.92 in 1.5 mi West 16.1 mph 25.3 mph 0.01 in Snow Light Snow
5:00 AM 32.0 °F 23.0 °F 32.0 °F 100% 29.87 in 1.0 mi West 11.5 mph 25.3 mph 0.00 in Snow Light Snow
5:08 AM 32.0 °F 22.5 °F 32.0 °F 100% 29.87 in 1.2 mi West 12.7 mph 20.7 mph 0.00 in Snow Light Snow
5:20 AM 32.0 °F 23.6 °F 30.2 °F 93% 29.87 in 2.5 mi West 10.4 mph 24.2 mph 0.00 in Snow Light Snow
5:28 AM 32.0 °F 22.1 °F 30.2 °F 93% 29.86 in 5.0 mi West 13.8 mph 20.7 mph 0.00 in Snow Light Snow
5:42 AM 32.0 °F 21.6 °F 30.2 °F 93% 29.87 in 1.8 mi West 15.0 mph 26.5 mph 0.00 in Snow Light Snow
5:53 AM 32.0 °F 22.5 °F 30.9 °F 96% 29.92 in 1.2 mi West 12.7 mph 27.6 mph 0.00 in Snow Light Snow
6:08 AM 32.0 °F 22.5 °F 30.2 °F 93% 29.87 in 2.0 mi West 12.7 mph 20.7 mph 0.01 in Snow Light Snow
6:23 AM 32.0 °F 23.0 °F 30.2 °F 93% 29.87 in 5.0 mi West 11.5 mph 19.6 mph 0.01 in Snow Light Snow
6:34 AM 32.0 °F 24.2 °F 30.2 °F 93% 29.87 in 3.0 mi West 9.2 mph 20.7 mph 0.01 in Snow Light Snow
6:53 AM 32.0 °F 22.5 °F 30.0 °F 92% 29.92 in 8.0 mi West 12.7 mph 20.7 mph 0.01 in Snow Light Snow
7:10 AM 32.0 °F 23.0 °F 30.2 °F 93% 29.87 in 6.0 mi West 11.5 mph 26.5 mph 0.00 in Snow Light Snow
7:53 AM 33.1 °F 23.9 °F 28.9 °F 85% 29.93 in 10.0 mi West 12.7 mph 20.7 mph 0.00 in   Overcast
8:05 AM 33.8 °F 25.8 °F 28.4 °F 81% 29.87 in 10.0 mi West 10.4 mph 18.4 mph N/A   Overcast
8:19 AM 33.8 °F 25.3 °F 28.4 °F 81% 29.88 in 10.0 mi West 11.5 mph 25.3 mph N/A   Overcast
8:53 AM 33.1 °F 24.9 °F 28.0 °F 82% 29.94 in 10.0 mi West 10.4 mph 18.4 mph N/A   Overcast
10:53 AM 35.1 °F 27.4 °F 30.0 °F 82% 29.96 in 5.0 mi West 10.4 mph 23.0 mph 0.00 in Snow Light Snow
11:45 AM 35.6 °F 28.0 °F 28.4 °F 75% 29.92 in 1.8 mi West 10.4 mph 24.2 mph 0.00 in Snow Light Snow
11:53 AM 35.1 °F 25.9 °F 28.9 °F 78% 29.98 in 1.8 mi West 13.8 mph 23.0 mph 0.00 in Snow Light Snow
12:00 PM 35.6 °F 28.0 °F 30.2 °F 81% 29.92 in 2.5 mi West 10.4 mph 21.9 mph 0.00 in Snow Light Snow
12:14 PM 33.8 °F 24.8 °F 28.4 °F 81% 29.93 in 1.0 mi West 12.7 mph 21.9 mph 0.00 in Snow Light Snow
12:26 PM 35.6 °F 27.5 °F 30.2 °F 81% 29.93 in 2.5 mi West 11.5 mph 19.6 mph 0.00 in Snow Light Snow
12:36 PM 33.8 °F 26.4 °F 30.2 °F 87% 29.93 in 1.8 mi West 9.2 mph 23.0 mph 0.00 in Snow Light Snow
12:53 PM 34.0 °F 25.5 °F 30.0 °F 85% 29.99 in 1.0 mi WNW 11.5 mph 21.9 mph 0.00 in Snow Light Snow
12:56 PM 33.8 °F 24.8 °F 30.2 °F 87% 29.93 in 1.0 mi West 12.7 mph 21.9 mph 0.00 in Snow Light Snow
1:34 PM 33.8 °F 24.3 °F 30.2 °F 87% 29.93 in 2.0 mi WNW 13.8 mph 20.7 mph 0.01 in Snow Light Snow
1:37 PM 33.8 °F 25.8 °F 30.2 °F 87% 29.93 in 3.0 mi WNW 10.4 mph 20.7 mph 0.01 in Snow Light Snow
1:53 PM 34.0 °F 25.0 °F 30.9 °F 89% 29.99 in 9.0 mi WNW 12.7 mph 24.2 mph 0.01 in   Overcast
2:09 PM 35.6 °F 28.0 °F 30.2 °F 81% 29.93 in 10.0 mi West 10.4 mph 19.6 mph N/A   Overcast
2:53 PM 35.1 °F 25.5 °F 30.9 °F 85% 29.99 in 7.0 mi WNW 15.0 mph 19.6 mph 0.00 in Snow Light Snow
3:53 PM 35.1 °F 26.9 °F 30.9 °F 85% 30.01 in 4.0 mi WNW 11.5 mph 18.4 mph 0.00 in Rain Light Rain
4:53 PM 35.1 °F 27.4 °F 32.0 °F 89% 30.02 in 10.0 mi West 10.4 mph 17.3 mph 0.00 in   Overcast
5:34 PM 35.6 °F 27.1 °F 32.0 °F 87% 29.97 in 10.0 mi West 12.7 mph 19.6 mph 0.00 in   Overcast
5:53 PM 35.1 °F 27.4 °F 32.0 °F 89% 30.04 in 9.0 mi WNW 10.4 mph 17.3 mph 0.00 in Rain Light Rain
6:24 PM 35.6 °F 28.6 °F 32.0 °F 87% 29.99 in 10.0 mi WNW 9.2 mph 17.3 mph 0.00 in   Overcast
6:50 PM 35.6 °F 28.0 °F 32.0 °F 87% 30.00 in 10.0 mi WNW 10.4 mph - 0.00 in   Overcast
6:53 PM 35.1 °F 27.9 °F 32.0 °F 89% 30.05 in 10.0 mi West 9.2 mph - 0.00 in   Overcast
7:24 PM 35.6 °F 28.0 °F 30.2 °F 81% 30.00 in 10.0 mi WNW 10.4 mph 18.4 mph 0.00 in   Overcast
8:23 PM 35.6 °F 27.1 °F 32.0 °F 87% 30.02 in 10.0 mi NW 12.7 mph 21.9 mph 0.00 in Rain Light Rain
8:46 PM 35.6 °F 27.1 °F 32.0 °F 87% 30.03 in 10.0 mi NW 12.7 mph 19.6 mph 0.00 in Rain Light Rain
8:53 PM 35.1 °F 25.9 °F 30.9 °F 85% 30.09 in 10.0 mi NNW 13.8 mph 23.0 mph 0.00 in Snow Light Snow
9:34 PM 33.8 °F 24.8 °F 30.2 °F 87% 30.05 in 6.0 mi NNW 12.7 mph - 0.00 in Snow Light Snow
9:45 PM 33.8 °F 23.9 °F 30.2 °F 87% 30.05 in 6.0 mi NNW 15.0 mph - 0.00 in Snow Light Snow
9:49 PM 33.8 °F 23.9 °F 30.2 °F 87% 30.05 in 8.0 mi NNW 15.0 mph - 0.00 in Snow Light Snow
9:53 PM 34.0 °F 23.4 °F 30.0 °F 85% 30.10 in 9.0 mi NNW 17.3 mph 24.2 mph 0.00 in Snow Light Snow
10:00 PM 33.8 °F 24.3 °F 30.2 °F 87% 30.05 in 9.0 mi NNW 13.8 mph 24.2 mph 0.00 in   Overcast
10:24 PM 33.8 °F 24.3 °F 30.2 °F 87% 30.05 in 3.0 mi NNW 13.8 mph 20.7 mph 0.00 in Snow Light Snow
10:31 PM 33.8 °F 23.9 °F 30.2 °F 87% 30.05 in 9.0 mi North 15.0 mph - 0.00 in   Overcast
10:53 PM 33.1 °F 23.9 °F 28.9 °F 85% 30.12 in 10.0 mi North 12.7 mph - 0.00 in   Overcast
11:53 PM 33.1 °F 24.4 °F 28.9 °F 85% 30.13 in 10.0 mi North 11.5 mph - N/A   Overcast